GW3733 Weather Reports


time (UTC)temp
C
wind
direction
speed
KPH
gust
KPH
rain 1hr
cm
rain 24hr
cm
rain mn
cm
humidity
%
barometer
mb
20260510174211 22 345 0.0 0.0 0.00 0.00 0.00 54 1009.3
20260510173706 22 350 0.0 0.0 0.00 0.00 0.00 55 1009.3
20260510173202 22 0 0.0 1.6 0.00 0.00 0.00 53 1009.2
20260510172657 22 4 0.0 0.0 0.00 0.00 0.00 52 1009.1
20260510172154 22 357 0.0 0.0 0.00 0.00 0.00 51 1009.2
20260510171651 22 335 1.6 3.2 0.00 0.00 0.00 51 1009.3
20260510171148 23 26 1.6 1.6 0.00 0.00 0.00 51 1009.2
20260510170645 23 348 1.6 3.2 0.00 0.00 0.00 51 1009.2
20260510170141 23 323 3.2 4.8 0.00 0.00 0.00 51 1009.3
20260510165637 23 308 3.2 4.8 0.00 0.00 0.00 50 1009.2
20260510165133 23 29 4.8 4.8 0.00 0.00 0.00 48 1009.2
20260510164631 23 331 3.2 3.2 0.00 0.00 0.00 51 1009.5
20260510164127 23 43 3.2 4.8 0.00 0.00 0.00 50 1009.4
20260510163623 23 41 1.6 3.2 0.00 0.00 0.00 52 1009.4
20260510163119 23 30 0.0 1.6 0.00 0.00 0.00 56 1009.6
20260510162614 22 313 1.6 1.6 0.00 0.00 0.00 54 1009.7
20260510162110 22 348 1.6 3.2 0.00 0.00 0.00 59 1009.7
20260510161606 21 271 1.6 3.2 0.00 0.00 0.00 58 1009.9
20260510161103 21 309 1.6 1.6 0.00 0.00 0.00 59 1009.9
20260510160600 21 341 1.6 1.6 0.00 0.00 0.00 61 1009.8
20260510160059 21 10 1.6 1.6 0.00 0.00 0.00 57 1009.9
20260510155557 21 87 3.2 4.8 0.00 0.00 0.00 57 1009.8
20260510155053 21 16 0.0 0.0 0.00 0.00 0.00 59 1010.0
20260510154548 21 197 1.6 3.2 0.00 0.00 0.00 60 1009.7
20260510154044 21 304 0.0 1.6 0.00 0.00 0.00 60 1009.9
20260510153539 20 348 0.0 0.0 0.00 0.00 0.00 64 1009.9
20260510153037 20 353 1.6 1.6 0.00 0.00 0.00 62 1010.0
20260510152533 20 345 0.0 1.6 0.00 0.00 0.00 62 1009.9
20260510152029 20 319 1.6 1.6 0.00 0.00 0.00 64 1009.7
20260510151521 20 342 0.0 1.6 0.00 0.00 0.00 62 1009.6
20260510151018 20 349 1.6 1.6 0.00 0.00 0.00 61 1009.6
20260510150508 20 339 0.0 0.0 0.00 0.00 0.00 62 1009.6
20260510150004 20 331 1.6 3.2 0.00 0.00 0.00 63 1009.8
20260510145501 20 349 0.0 0.0 0.00 0.00 0.00 62 1009.5
20260510144956 20 13 0.0 0.0 0.00 0.00 0.00 62 1009.7
20260510144453 20 348 0.0 1.6 0.00 0.00 0.00 63 1009.6
20260510143948 20 346 0.0 0.0 0.00 0.00 0.00 63 1009.4
20260510143439 20 350 1.6 1.6 0.00 0.00 0.00 65 1009.6
20260510142936 20 355 0.0 0.0 0.00 0.00 0.00 65 1009.9
20260510142433 20 350 0.0 0.0 0.00 0.00 0.00 64 1009.6
20260510141929 20 336 0.0 1.6 0.00 0.00 0.00 65 1009.9
20260510141426 19 350 0.0 0.0 0.00 0.00 0.00 68 1009.4
20260510140924 19 7 0.0 1.6 0.00 0.00 0.00 66 1009.6
20260510140419 19 355 1.6 1.6 0.00 0.00 0.00 64 1009.5
20260510135918 19 357 0.0 0.0 0.00 0.00 0.00 67 1009.6
20260510135410 19 326 1.6 3.2 0.00 0.00 0.00 68 1009.5
20260510134907 19 341 0.0 1.6 0.00 0.00 0.00 68 1009.3
20260510134403 19 343 0.0 1.6 0.00 0.00 0.00 72 1009.4
20260510133900 19 3 0.0 0.0 0.00 0.00 0.00 73 1009.5
20260510133356 18 357 0.0 0.0 0.00 0.00 0.00 76 1009.6
20260510132851 18 7 0.0 0.0 0.00 0.00 0.00 77 1009.5
20260510132349 17 355 0.0 1.6 0.00 0.00 0.00 80 1009.4
20260510131846 17 2 0.0 0.0 0.00 0.00 0.00 78 1009.3
20260510131344 16 4 0.0 0.0 0.00 0.00 0.00 77 1009.4
20260510130840 16 359 0.0 0.0 0.00 0.00 0.00 84 1009.5
20260510130337 15 359 0.0 0.0 0.00 0.00 0.00 87 1009.4
20260510125834 15 359 0.0 0.0 0.00 0.00 0.00 88 1009.5
20260510125330 14 359 0.0 0.0 0.00 0.00 0.00 89 1009.5
20260510124827 13 4 0.0 0.0 0.00 0.00 0.00 90 1009.6
20260510124324 13 0 0.0 0.0 0.00 0.00 0.00 90 1009.5
20260510123820 13 14 0.0 0.0 0.00 0.00 0.00 91 1009.3
20260510123315 12 14 0.0 0.0 0.00 0.00 0.00 93 1009.1
20260510122812 12 14 0.0 0.0 0.00 0.00 0.00 98 1008.9
20260510122307 11 14 0.0 0.0 0.00 0.00 0.00 99 1008.8
20260510121804 11 14 0.0 0.0 0.00 0.00 0.00 99 1008.9
20260510121256 10 14 0.0 0.0 0.00 0.00 0.00 99 1009.0
20260510120753 10 14 0.0 0.0 0.00 0.00 0.00 99 1008.9
20260510120250 10 14 0.0 0.0 0.00 0.00 0.00 99 1008.8
20260510115746 9 14 0.0 0.0 0.00 0.00 0.00 99 1009.0
20260510115244 8 14 0.0 0.0 0.00 0.00 0.00 99 1009.0
20260510114738 8 15 0.0 0.0 0.00 0.00 0.00 99 1009.0
20260510114237 7 14 0.0 0.0 0.00 0.00 0.00 99 1009.4
20260510113731 7 18 0.0 0.0 0.00 0.00 0.00 99 1009.1
20260510113229 6 2 0.0 0.0 0.00 0.00 0.00 99 1009.1
20260510112725 6 2 0.0 0.0 0.00 0.00 0.00 99 1008.9
20260510112222 6 2 0.0 0.0 0.00 0.00 0.00 99 1009.1
20260510111717 5 1 0.0 0.0 0.00 0.00 0.00 99 1008.9
20260510111215 5 1 0.0 0.0 0.00 0.00 0.00 99 1008.7
20260510110714 5 1 0.0 0.0 0.00 0.00 0.00 99 1008.8
20260510110212 5 1 0.0 0.0 0.00 0.00 0.00 99 1008.5
20260510105706 5 2 0.0 0.0 0.00 0.00 0.00 99 1008.5
20260510105201 5 2 0.0 0.0 0.00 0.00 0.00 99 1008.6
20260510104658 5 2 0.0 0.0 0.00 0.00 0.00 99 1008.4
20260510104155 5 2 0.0 0.0 0.00 0.00 0.00 99 1008.3
20260510103652 4 1 0.0 0.0 0.00 0.00 0.00 99 1008.1
20260510103149 5 1 0.0 0.0 0.00 0.00 0.00 99 1008.0
20260510102648 4 1 0.0 0.0 0.00 0.00 0.00 99 1008.2
20260510102145 4 1 0.0 0.0 0.00 0.00 0.00 99 1007.8
20260510101642 4 4 0.0 0.0 0.00 0.00 0.00 99 1007.8
20260510101141 4 3 0.0 0.0 0.00 0.00 0.00 99 1007.8
20260510100636 4 4 0.0 0.0 0.00 0.00 0.00 99 1007.4
20260510100134 4 4 0.0 0.0 0.00 0.00 0.00 99 1007.5
20260510095629 4 5 0.0 0.0 0.00 0.00 0.00 99 1007.3
20260510095124 4 357 0.0 0.0 0.00 0.00 0.00 99 1007.5
20260510094623 4 357 0.0 0.0 0.00 0.00 0.00 99 1007.6
20260510094119 4 357 0.0 0.0 0.00 0.00 0.00 99 1007.4
20260510093616 4 12 0.0 0.0 0.00 0.00 0.00 99 1007.2
20260510093113 4 13 0.0 0.0 0.00 0.00 0.00 99 1007.2
20260510092610 4 13 0.0 0.0 0.00 0.00 0.00 99 1007.2
20260510092109 4 13 0.0 0.0 0.00 0.00 0.00 99 1007.2
20260510091606 4 13 0.0 0.0 0.00 0.00 0.00 99 1007.1
20260510091102 4 13 0.0 0.0 0.00 0.00 0.00 99 1007.2
20260510090600 4 13 0.0 0.0 0.00 0.00 0.00 99 1007.4
20260510090055 4 13 0.0 0.0 0.00 0.00 0.00 99 1007.3
20260510085550 4 13 0.0 0.0 0.00 0.00 0.00 99 1007.1
20260510085046 4 14 0.0 0.0 0.00 0.00 0.00 99 1007.1
20260510084543 4 14 0.0 0.0 0.00 0.00 0.00 99 1007.3
20260510084040 5 14 0.0 0.0 0.00 0.00 0.00 99 1007.1
20260510083536 4 13 0.0 0.0 0.00 0.00 0.00 99 1007.2
20260510083032 4 13 0.0 0.0 0.00 0.00 0.00 99 1007.3
20260510082530 5 13 0.0 0.0 0.00 0.00 0.00 99 1007.1
20260510082025 5 13 0.0 0.0 0.00 0.00 0.00 99 1007.0
20260510081520 5 13 0.0 0.0 0.00 0.00 0.00 99 1007.0
20260510081016 5 13 0.0 0.0 0.00 0.00 0.00 99 1007.0
20260510080515 5 13 0.0 0.0 0.00 0.00 0.00 99 1007.2
20260510080012 5 13 0.0 0.0 0.00 0.00 0.00 99 1007.1
20260510075510 5 13 0.0 0.0 0.00 0.00 0.00 99 1006.9
20260510075006 5 14 0.0 0.0 0.00 0.00 0.00 99 1007.0
20260510074504 5 15 0.0 0.0 0.00 0.00 0.00 99 1007.2
20260510073959 5 352 0.0 1.6 0.00 0.00 0.00 99 1006.9
20260510073455 5 352 0.0 0.0 0.00 0.00 0.00 99 1006.9
20260510072952 5 352 0.0 0.0 0.00 0.00 0.00 99 1007.0
20260510072449 5 351 0.0 1.6 0.00 0.00 0.00 99 1007.1
20260510071944 5 352 0.0 0.0 0.00 0.00 0.00 99 1006.9
20260510071441 5 353 0.0 0.0 0.00 0.00 0.00 99 1006.8
20260510070939 5 352 0.0 0.0 0.00 0.00 0.00 99 1006.9
20260510070436 5 352 0.0 0.0 0.00 0.00 0.00 99 1006.8
20260510065932 5 352 0.0 0.0 0.00 0.00 0.00 99 1006.9
20260510065429 5 352 0.0 0.0 0.00 0.00 0.00 99 1006.6
20260510064924 5 352 0.0 0.0 0.00 0.00 0.00 99 1006.7
20260510064422 5 352 0.0 0.0 0.00 0.00 0.00 99 1006.5
20260510063919 5 352 0.0 0.0 0.00 0.00 0.00 99 1006.5
20260510063415 5 352 0.0 0.0 0.00 0.00 0.00 99 1006.6
20260510062913 5 352 0.0 0.0 0.00 0.00 0.00 99 1006.7
20260510062408 5 352 0.0 0.0 0.00 0.00 0.00 99 1006.7
20260510061904 5 352 0.0 0.0 0.00 0.00 0.00 99 1006.8
20260510061400 5 352 0.0 0.0 0.00 0.00 0.00 99 1006.7
20260510060856 5 352 0.0 0.0 0.00 0.00 0.00 99 1006.9
20260510060354 5 352 0.0 0.0 0.00 0.00 0.00 99 1007.0
20260510055849 5 352 0.0 0.0 0.00 0.00 0.00 99 1007.0
20260510055349 5 351 0.0 0.0 0.00 0.00 0.00 99 1006.8
20260510054842 5 352 0.0 0.0 0.00 0.00 0.00 99 1007.1
20260510054338 5 352 0.0 0.0 0.00 0.00 0.00 99 1007.1
20260510053833 5 352 0.0 0.0 0.00 0.00 0.00 99 1007.1
20260510053329 5 352 0.0 0.0 0.00 0.00 0.00 99 1007.0
20260510052826 5 352 0.0 0.0 0.00 0.00 0.00 99 1007.1
20260510052321 5 352 0.0 0.0 0.00 0.00 0.00 99 1006.9
20260510051818 5 352 0.0 0.0 0.00 0.00 0.00 99 1007.1
20260510051315 5 352 0.0 0.0 0.00 0.00 0.00 99 1007.1
20260510050812 5 352 0.0 0.0 0.00 0.00 0.00 99 1006.9
20260510050308 5 352 0.0 0.0 0.00 0.00 0.00 99 1006.8
20260510045805 5 352 0.0 0.0 0.00 0.00 0.00 99 1006.9
20260510045305 5 352 0.0 0.0 0.00 0.00 0.00 99 1006.9
20260510044759 5 352 0.0 0.0 0.00 0.00 0.00 99 1006.9
20260510044256 6 352 0.0 0.0 0.00 0.00 0.00 99 1006.8
20260510043751 6 352 0.0 0.0 0.00 0.00 0.00 99 1006.7
20260510043243 6 352 0.0 0.0 0.00 0.00 0.00 99 1006.9
20260510042740 6 352 0.0 0.0 0.00 0.00 0.00 99 1006.9
20260510042236 5 352 0.0 0.0 0.00 0.00 0.00 99 1006.8
20260510041733 6 352 0.0 0.0 0.00 0.00 0.00 99 1006.6
20260510041230 6 352 0.0 0.0 0.00 0.00 0.00 99 1006.8
20260510040727 6 352 0.0 0.0 0.00 0.00 0.00 99 1006.6
20260510040224 6 352 0.0 0.0 0.00 0.00 0.00 99 1006.9
20260510035719 6 352 0.0 0.0 0.00 0.00 0.00 99 1006.9
20260510035215 6 352 0.0 0.0 0.00 0.00 0.00 99 1006.7
20260510034711 6 352 0.0 0.0 0.00 0.00 0.00 99 1006.9
20260510034210 6 352 0.0 0.0 0.00 0.00 0.00 99 1007.0
20260510033705 6 352 0.0 0.0 0.00 0.00 0.00 99 1007.0
20260510033204 6 352 0.0 0.0 0.00 0.00 0.00 99 1006.9
20260510032659 6 352 0.0 0.0 0.00 0.00 0.00 99 1006.9
20260510032154 6 352 0.0 0.0 0.00 0.00 0.00 99 1006.9
20260510031649 6 352 0.0 0.0 0.00 0.00 0.00 99 1006.7
20260510031147 7 352 0.0 0.0 0.00 0.00 0.00 99 1006.8
20260510030647 7 352 0.0 0.0 0.00 0.00 0.00 99 1006.8
20260510030145 7 352 0.0 0.0 0.00 0.00 0.00 99 1007.0
20260510025642 7 352 0.0 0.0 0.00 0.00 0.00 98 1006.8
20260510025139 7 352 0.0 0.0 0.00 0.00 0.00 98 1006.9
20260510024636 7 352 0.0 0.0 0.00 0.00 0.00 98 1006.8
20260510024132 7 352 0.0 0.0 0.00 0.00 0.00 98 1006.9
20260510023628 8 352 0.0 0.0 0.00 0.00 0.00 98 1006.8
20260510023125 7 352 0.0 0.0 0.00 0.00 0.00 98 1006.6
20260510022619 7 352 0.0 0.0 0.00 0.00 0.00 98 1006.8
20260510022114 8 352 0.0 0.0 0.00 0.00 0.00 98 1006.5
20260510021610 8 352 0.0 0.0 0.00 0.00 0.00 98 1006.6
20260510021108 8 352 0.0 0.0 0.00 0.00 0.00 97 1006.5
20260510020601 8 352 0.0 0.0 0.00 0.00 0.00 97 1006.4
20260510020057 8 351 0.0 0.0 0.00 0.00 0.00 97 1006.3
20260510015553 8 351 0.0 0.0 0.00 0.00 0.00 97 1006.3
20260510015049 8 351 0.0 0.0 0.00 0.00 0.00 97 1006.2
20260510014546 8 351 0.0 0.0 0.00 0.00 0.00 97 1005.9
20260510014043 8 351 0.0 0.0 0.00 0.00 0.00 96 1006.1
20260510013538 9 351 0.0 0.0 0.00 0.00 0.00 97 1005.9
20260510013034 9 351 0.0 0.0 0.00 0.00 0.00 96 1005.9
20260510012528 9 351 0.0 0.0 0.00 0.00 0.00 96 1005.9
20260510012024 9 351 0.0 0.0 0.00 0.00 0.00 95 1005.6
20260510011519 10 351 0.0 0.0 0.00 0.00 0.00 95 1005.5
20260510011014 10 351 0.0 0.0 0.00 0.00 0.00 95 1005.4
20260510010512 10 354 0.0 0.0 0.00 0.00 0.00 94 1005.2
20260510010009 10 354 0.0 0.0 0.00 0.00 0.00 93 1005.4
20260510005504 10 354 0.0 0.0 0.00 0.00 0.00 93 1005.3
20260510005002 10 354 0.0 0.0 0.00 0.00 0.00 92 1005.2
20260510004459 11 354 0.0 0.0 0.00 0.00 0.00 92 1005.2
20260510003957 11 354 0.0 0.0 0.00 0.00 0.00 91 1005.1
20260510003454 11 354 0.0 0.0 0.00 0.00 0.00 90 1005.1
20260510002949 12 354 0.0 0.0 0.00 0.00 0.00 89 1004.8
20260510002445 12 353 0.0 0.0 0.00 0.00 0.00 89 1004.8
20260510001942 12 353 0.0 0.0 0.00 0.00 0.00 89 1004.8
20260510001439 12 353 0.0 0.0 0.00 0.00 0.00 88 1004.8
20260510000937 12 352 0.0 0.0 0.00 0.00 0.00 87 1004.5
20260510000433 13 353 0.0 0.0 0.00 0.00 0.00 86 1004.5
20260509235929 13 352 0.0 0.0 0.00 0.00 0.00 84 1004.5
20260509235426 14 352 0.0 0.0 0.00 0.00 0.00 82 1004.7
20260509234922 15 352 0.0 0.0 0.00 0.00 0.00 81 1004.4
20260509234419 15 352 0.0 0.0 0.00 0.00 0.00 80 1004.7
20260509233917 15 352 0.0 0.0 0.00 0.00 0.00 78 1004.8
20260509233415 16 352 0.0 0.0 0.00 0.00 0.00 78 1004.5
20260509232911 16 352 0.0 0.0 0.00 0.00 0.00 77 1004.4
20260509232409 17 352 0.0 0.0 0.00 0.00 0.00 75 1004.5
20260509231904 18 352 0.0 0.0 0.00 0.00 0.00 71 1004.7
20260509231401 18 350 0.0 0.0 0.00 0.00 0.00 61 1004.7
20260509230859 19 4 0.0 0.0 0.00 0.00 0.00 58 1004.5
20260509230356 19 354 0.0 0.0 0.00 0.00 0.00 53 1004.7
20260509225851 19 354 0.0 0.0 0.00 0.00 0.00 58 1004.5
20260509225348 20 336 0.0 0.0 0.00 0.00 0.00 56 1004.4
20260509224844 20 0 0.0 0.0 0.00 0.00 0.00 52 1004.8
20260509224340 20 346 0.0 1.6 0.00 0.00 0.00 51 1004.7
20260509223837 20 0 1.6 1.6 0.00 0.00 0.00 52 1004.7
20260509223334 20 345 0.0 0.0 0.00 0.00 0.00 50 1004.9
20260509222831 20 352 0.0 0.0 0.00 0.00 0.00 52 1004.7
20260509222326 20 333 1.6 1.6 0.00 0.00 0.00 50 1004.8
20260509221822 20 25 0.0 1.6 0.00 0.00 0.00 56 1004.5
20260509221320 20 305 1.6 1.6 0.00 0.00 0.00 57 1004.9
20260509220819 20 318 1.6 1.6 0.00 0.00 0.00 60 1004.7
20260509220316 20 19 0.0 1.6 0.00 0.00 0.00 60 1004.7
20260509215811 20 3 0.0 0.0 0.00 0.00 0.00 59 1004.9
20260509215308 20 351 0.0 1.6 0.00 0.00 0.00 60 1004.7
20260509214805 19 16 0.0 0.0 0.00 0.00 0.00 61 1004.7
20260509214302 19 303 4.8 4.8 0.00 0.00 0.00 63 1004.7
20260509213759 19 359 0.0 0.0 0.00 0.00 0.00 62 1004.7
20260509213255 20 354 1.6 1.6 0.00 0.00 0.00 62 1004.8
20260509212752 20 345 1.6 1.6 0.00 0.00 0.00 60 1004.5
20260509212250 19 346 0.0 1.6 0.00 0.00 0.00 62 1004.5
20260509211745 20 307 1.6 3.2 0.00 0.00 0.00 62 1004.5
20260509211242 20 355 1.6 1.6 0.00 0.00 0.00 58 1004.5
20260509210738 20 0 0.0 0.0 0.00 0.00 0.00 55 1004.4
20260509210237 20 351 1.6 1.6 0.00 0.00 0.00 55 1004.2
20260509205735 20 11 1.6 1.6 0.00 0.00 0.00 55 1004.3
20260509205230 20 11 1.6 3.2 0.00 0.00 0.00 56 1004.3
20260509204726 20 14 1.6 1.6 0.00 0.00 0.00 54 1004.4
20260509204223 20 8 0.0 0.0 0.00 0.00 0.00 57 1004.2
20260509203719 20 9 0.0 0.0 0.00 0.00 0.00 54 1004.1
20260509203217 20 8 0.0 0.0 0.00 0.00 0.00 55 1004.0
20260509202712 20 10 0.0 0.0 0.00 0.00 0.00 55 1004.1
20260509202208 20 355 1.6 1.6 0.00 0.00 0.00 56 1004.4
20260509201703 20 358 0.0 0.0 0.00 0.00 0.00 55 1004.4
20260509201200 20 26 0.0 1.6 0.00 0.00 0.00 50 1004.5
20260509200656 20 358 0.0 0.0 0.00 0.00 0.00 50 1004.5
20260509200151 20 78 0.0 1.6 0.00 0.00 0.00 51 1004.3
20260509195647 20 357 0.0 0.0 0.00 0.00 0.00 50 1004.4
20260509195143 20 6 0.0 1.6 0.00 0.00 0.00 51 1004.2
20260509194637 20 9 0.0 1.6 0.00 0.00 0.00 50 1004.2
20260509194134 20 1 0.0 0.0 0.00 0.00 0.00 52 1004.3
20260509193630 20 346 0.0 1.6 0.00 0.00 0.00 53 1004.3
20260509193126 20 1 0.0 0.0 0.00 0.00 0.00 51 1004.4
20260509192623 20 356 0.0 0.0 0.00 0.00 0.00 52 1004.7
20260509192118 20 316 3.2 3.2 0.00 0.00 0.00 52 1004.5
20260509191612 21 26 0.0 0.0 0.00 0.00 0.00 52 1004.5
20260509191109 20 314 3.2 3.2 0.00 0.00 0.00 53 1004.4
20260509190606 20 310 1.6 1.6 0.00 0.00 0.00 54 1004.8
20260509190103 20 76 1.6 3.2 0.00 0.00 0.00 53 1004.5
20260509185601 20 307 3.2 4.8 0.00 0.00 0.00 55 1004.4
20260509185056 20 5 4.8 6.4 0.00 0.00 0.00 54 1004.4
20260509184555 20 359 1.6 3.2 0.00 0.00 0.00 59 1004.7
20260509184051 20 347 1.6 3.2 0.00 0.00 0.00 57 1004.4
20260509183547 20 350 1.6 3.2 0.00 0.00 0.00 55 1004.5
20260509183043 20 330 3.2 4.8 0.00 0.00 0.00 55 1004.5
20260509182539 18 314 3.2 4.8 0.00 0.00 0.00 59 1005.1
20260509182036 19 293 1.6 3.2 0.00 0.00 0.00 61 1005.0
20260509181534 18 2 1.6 1.6 0.00 0.00 0.00 64 1004.9
20260509181031 18 347 3.2 4.8 0.00 0.00 0.00 65 1005.2
20260509180527 18 347 1.6 3.2 0.00 0.00 0.00 62 1005.2
20260509180025 18 351 3.2 4.8 0.00 0.00 0.00 62 1005.3
20260509175520 17 352 0.0 1.6 0.00 0.00 0.00 65 1005.5
20260509175017 17 345 0.0 1.6 0.00 0.00 0.00 64 1005.5
20260509174514 17 351 6.4 9.7 0.00 0.00 0.00 63 1005.4